Hovedside
METAR-TAF:

METAR-TAF

Lufthavner :

Namsos, Norge

Namsos lufthavn

breddegrad: 64-28N, lengdegrad: 011-35E, høyde over havet: 0 m

Gjeldene værobservasjon

Denne rapporten ble laget for 1 time og 24 minutter siden, klokken 06:20 UTC
Vind 18 kt fra Øst
Temperatur 3°C
Luftfuktighet 65%
Trykk 1016 hPa
Sikt 10 km eller mer
ingen skyer under 1500 m og ingen bygeskyer

METAR: ENNM 240620Z 08018KT CAVOK 03/M03 Q1016

Tid: 09:44 (07:44 UTC)


TAF: fraværende

Værobservasjoner og værvarsel for over 4000 flyplasser (METAR- og TAF-rapporter).

Tilgjengelige stasjoner er representert av de røde og gule prikkene på kartet.

Hold musepekeren over prikken for å se navnet på stasjonen.

Klikk så for å se værobservasjoner og -varsler.

For å forandre kartet kan du klikke på den grønne knappen med svart kryss for å zoome inn, på den grønne knappen med strek for å zoome ut, eller på de grønne pilene for å se tilstøtende kart.


METAR-TAF: